Showing default

COSMOS 2449 (GLONASS), 33467

Orbit data source: Space-Track

COSMOS 2449 (GLONASS), 33467 is a Commonwealth of Independent States-origin payload satellite in MEO that was launched on Thu, 25 Dec 2008 UTC via a PROTON-M/DM-2 launch vehicle from the Tyuratam Missile And Space Complex (TTMTR). Payload-class satellites include a variety of spacecraft equipped with specific instruments for various scientific and technological missions. These include communications satellites like Starlink; space stations such as the ISS; scientific satellites like the Hubble; Earth observation satellites from companies like Planet Labs, Umbra, and HawkEye 360; GPS; miniature CubeSats for education and research; and military/defense satellites.

Loading next visibility...
Identifier
33467, 2008-067B
Orbit
MEO
Last TLE update
23 hours ago
Origin
Manufacturer
Resehetnev ISS
Mission
Non-operational Defense Navigation
Bus & Motor
URAGAN, Unknown motor
Mass
1,450 kg wet, ~1,200 kg dry
Launch date (UTC)
2008-12-25 (17 years ago)
Launch vehicle
PROTON-M/DM-2
Launch site
Tyuratam Missile And Space Complex (TTMTR)
Object type
Payload
Rocket body
Debris
Shape & HBR
Cyl + 1 Ant + 2 Pan, 7.8 m
Radar Cross Section
8.467 m², Large (>1 m²)

Expand to show TLE details & history

TLE from 23 hours ago
0 COSMOS 2449 (GLONASS)
1 33467U 08067B   25181.40108228 -.00000035  00000-0  00000-0 0  9995
2 33467  64.5962  81.3758 0032853 238.1882 121.5347  2.13096941128461
Epoch: 2025-06-30T09:37Z
TLE epoch observation values (Epoch: 2025-06-30T09:37:33.509Z)
Latitude
0.00006°
Longitude
18.2878°
Altitude
19,174.938 km
Speed
3.946 km/s
True Right ascension
05h 25m 33s
True Declination
0° 00' 00"
Sunlit
Object was in daylight at epoch
Visualization orbit readout
Latitude
9.81487°
Longitude
22.95524°
Altitude
19,186.932 km
Speed
3.944 km/s
Apparent Right ascension
06h 06m 42s
Apparent Declination
0° 32' 50"
Sunlit
Object is in daylight
Visualization observer readout
Local Sidereal Time
20:07:38
Azimuth
41.877° NE
Elevation
-41.032°
Doppler factor
1
Orbital elements
Apogee altitude
19,213.722 km
Perigee altitude
19,046.119 km
Semi-major axis
25,508.057 km
Eccentricity
0.00329
Inclination
64.5962°
RAAN
81.3758°
Arg. of periapsis
238.1882°
True anomaly
Unknown
Mean anomaly
121.5347°
Eccentric anomaly
Unknown
Mean motion
0.53275 °/min
Orbital period
675.73 mins
BSTAR
0
Loading maneuver chart data...
Loading SW <> Apogee altitude chart data...
Loading historical data...
Loading historical data...
Loading historical data...
Loading historical data...
Loading historical data...
Loading historical data...
Loading historical data...

COSMOS 2449 (GLONASS) Visibility forecast

Observer location: undefined°, undefined°

Span
Click to sort rows by Start time (UTC) header in descending order
Start Az.
Max El. time (UTC)
Max El. Az.
Max El.
End time (UTC)
End Az.
352 mins2025-07-01 18:39:31.152Z204.884° SW2025-07-01 21:09:31.152Z307.29° NW43.009°2025-07-02 00:31:31.152Z89.926° E
|